Wetterübersicht - Hohenpeißenberg - Ortsteil Bschorrwald     750 m über NN
47°47'26''N 11°00'47''E - - Zeitangaben in MEZ
Datum Mittwoch, 16. Oktober 2019
Aktualisierung von 00:10 Uhr bis 23:50 Uhr alle 10 Minuten.
Zeit 11:44 (-1h = UTC-Zeit)
Temperatur Außen aktuell
14,0 °C
Min.(06:43)
7,5 °C
Max.(11:41)
14,1 °C
Durchschnitt
9,5 °C
Luftfeuchte Außen aktuell
55 %
Min.(11:43)
54 %
Max.(06:29)
86 %
Durchschnitt
78 %
Taupunkt aktuell
5,1 °C
Min.(10:52)
4,3 °C
Max.(02:03)
6,4 °C
Durchschnitt
5,8 °C
Luftdruck
aktuell
1016,4 hPa
gleichbleibend

-0,1 hPa/3h
Min.(00:00)
1012,3 hPa
Max.(09:09)
1016,7 hPa
Durchschnitt
1015,1 hPa
+0,1 hPa/1h -0,3 hPa/2h +1,4 hPa/6h -- hPa/12h -- hPa/24h
Solarstrahlung aktuell
575 W/m²
Max.(11:41)
577 W/m²
Durchschnitt
291 W/m²
Wettervorhersage sonnig
Wettervorhersage VantagePro Zunehmende Bewölkung mit wenig Temperaturänderung. Niederschläge möglich innerhalb der nächsten 24 bis 48 Stunden.
Persönliches Wohlbefinden leichter Kältestress (4)
Windchill aktuell
14,0
Min.(07:26)
4,7
Max.(11:39)
14,0
Durchschnitt
7,9
Wind Böen aktuell
20,9 (4)
Max-Tag(00:53)
W 37,0 (5)
Durchschnitt
18,5 (3)
Max Wind Böen letzte Stunde
20,9
letzten 3 Stunden
29,0
letzten 6 Stunden
30,6
Windgeschwindigkeit aktuell
12,9 (3)
Max.(02:32)
W-SW 25,7 (4)
Durchschnitt
13,1 (3)
Windrichtung 292 / W-NW dominierend
W
Niederschlag
letzte Stunde 0,0
letzten 6 Stunden 0,0
aktueller Tag 0,4
aktuelle Woche 0,2
aktueller Monat 75,2
letzter Monat 121,0
Oktober Vorjahr 59,0
aktuelles Jahr 1040,2
Regen / Jahr 149
Schneehöhe 0,0 23.03.2015 21:45
Trockenzeiten
letzter Regen >0,2 l/m² 16.10.2019 um 02:35 Uhr
Trocken seit 9 Stunden, 8 Minuten
Längste Trockenzeit 05.09.2015, 09:00 Uhr
bis
18.01.2016, 10:43 Uhr
Dauer: 135 Tage, 1 Stunden, 43 Minuten
Dauerfrost
Letzte Dauerfrostperiode 21.03.2019, 00:56 Uhr
bis
21.03.2019, 08:09 Uhr
Dauer: 7 Stunden, 13 Minuten
Längste Dauerfrostperiode 23.01.2010, 11:37 Uhr
bis
16.02.2010, 12:45 Uhr
Dauer: 24 Tage, 1 Stunden, 7 Minuten
Sonne
Sonnenaufgang06:35
Sonnenzenit12:01
Sonnenhöchststand33,349
Sonnenintensität aktuell779
Sonnenuntergang17:26
Sonnenaufgang morgen06:37 17. Oktober 2019
Tageslänge10:50
Bewölkungsgradsonnig 100
Sonnenschein akt. Tag3:19 Stunden
Sonnenschein letzte Stunde60
Sonnenschein Woche (bis Vortag)11:59 Stunden
Sonnenschein Monat (bis Vortag)58:07 Stunden
Mond
Alter des Mondes17 Tage, 3 Stunden, 26 Minuten
Mondaufgang19:04
Mondzenit01:40
Monduntergang08:53
Mondphase-94%
(0% = Neumond, 100% = Vollmond)
nächster Vollmond14:35 12. November 2019
nächster Neumond04:39 28. Oktober 2019
Die dargestellten Werte repräsentieren die Daten des aktuellen Tages! Der Luftdruck ist auf Meereshöhe bezogen!
Die Mond-/Sonnen-Daten beziehen sich auf die Standortkoordinaten von 47° 47' 26" Nord - 11° 0' 47" Ost
Zeit --> Mitteleuropäische Zeit
Die Wettervorhersage wurde berechnet - ohne Gewähr!

          Aussen-    Aussen                                                    Wind                              
Zeit     tempera.   Feuchte   Luftdruck   Taupunkt  Windchill      Wind       richtung     Sonne        Regen        
----------------------------------------------------------------------------------------------------------------------------
00:00      9,4      81  1012,3     6,3     6,5     20,9        W       0     0,0   
01:00      9,4      80  1013,1     6,1     6,5     20,9        W       0     0,0   
02:00      9,1      83  1013,9     6,4     7,1     12,9        W       0     0,2   
03:00      8,8      84  1014,2     6,2     6,7     12,9        W       0     0,2   
04:00      8,8      82  1014,2     5,9     6,5     14,5     W-NW       0     0,0   
05:00      8,4      84  1014,6     5,9     5,6     17,7     W-SW       0     0,0   
06:00      7,9      85  1015,0     5,5     5,6     12,9     W-NW       0     0,0   
07:00      7,6      86  1015,7     5,4     6,2      8,0        W      23     0,0   
08:00      8,7      81  1016,3     5,6     6,0     17,7     W-SW      60     0,0   
09:00     10,5      73  1016,5     5,9    10,5      9,7     W-SW     339     0,0   
10:00     11,6      66  1016,6     5,5    11,6      8,0        W     468     0,0   
11:00     13,2      60  1016,3     5,6    13,2      3,2     W-SW     455     0,0   
----------------------------------------------------------------------------------------------------------------------------
Durch.     9,5      78  1015,1     5,8     7,9     13,1                           0,4

Min.       7,5      54  1012,3     4,3     4,7
Zeit       06:43     11:43      00:00       10:52     07:26

Max.      14,1      86  1016,7     6,4                 37,0              577
Zeit       11:41     06:29      09:09       02:03                  00:53                  11:41

© 1999-2016 Werner Krenn / Mischa Thurnherr - Wetterstation Bedien- und Auswertesoftware - V2.98.4

Jahres-Eistage (Tmax < 0°C) 7 Vorjahres-Eistage (Tmax < 0°C) 22
Jahres-Frostage (Tmin < 0°C) 47 Vorjahres-Frostage (Tmin < 0°C) 78
Kalte Tage des Jahres (Tmax < 10°C) 79 Kalte Tage des Vorjahres (Tmax < 10°C) 114
Jahres-Sommertage (Tmax >= 25°C) 53 Vorjahres-Sommertage (Tmax >= 25°C) 70
Heiße Tage des Jahres (Tmax >= 30°C) 13 Heiße Tage Vorjahr (Tmax >= 30°C) 9